Time,TemperatureF,DewpointF,PressureIn,WindDirection,WindDirectionDegrees,WindSpeedMPH,WindSpeedGustMPH,Humidity,HourlyPrecipIn,Conditions,Clouds,dailyrainin,SolarRadiationWatts/m^2,SoftwareType,DateUTC
2013-09-04 00:01:00,68.3,67.4,30.00,ENE,65,0.0,0.0,97,0.00,,,0.00,0,Wunderground v.1.15,2013-09-04 04:01:00,
2013-09-04 00:02:00,68.5,67.6,29.99,ENE,65,0.0,0.0,97,0.00,,,0.00,0,Wunderground v.1.15,2013-09-04 04:02:00,
2013-09-04 00:03:00,68.6,67.7,30.00,ENE,65,0.0,0.0,97,0.00,,,0.00,0,Wunderground v.1.15,2013-09-04 04:03:00,
2013-09-04 00:07:00,69.0,68.4,30.00,ENE,65,0.0,0.0,98,0.00,,,0.00,0,Wunderground v.1.15,2013-09-04 04:07:00,
2013-09-04 00:13:00,69.0,68.1,30.00,ENE,65,0.0,0.0,97,0.00,,,0.00,0,Wunderground v.1.15,2013-09-04 04:13:00,
2013-09-04 00:18:00,68.8,67.9,30.00,ENE,65,0.0,0.0,97,0.00,,,0.00,0,Wunderground v.1.15,2013-09-04 04:18:00,
2013-09-04 00:23:00,68.5,67.6,30.00,ENE,65,0.0,0.0,97,0.00,,,0.00,0,Wunderground v.1.15,2013-09-04 04:23:00,
2013-09-04 00:29:00,68.3,67.4,30.00,ENE,65,0.0,0.0,97,0.00,,,0.00,0,Wunderground v.1.15,2013-09-04 04:29:00,
2013-09-04 00:34:00,68.5,67.9,30.00,ENE,65,0.0,0.0,98,0.00,,,0.00,0,Wunderground v.1.15,2013-09-04 04:34:00,
2013-09-04 00:39:00,68.4,67.5,30.00,ENE,65,0.0,0.0,97,0.00,,,0.00,0,Wunderground v.1.15,2013-09-04 04:39:00,
2013-09-04 00:45:00,68.1,67.2,30.00,ENE,65,0.0,0.0,97,0.00,,,0.00,0,Wunderground v.1.15,2013-09-04 04:45:00,
2013-09-04 00:50:00,67.8,66.9,30.00,ENE,65,0.0,0.0,97,0.00,,,0.00,0,Wunderground v.1.15,2013-09-04 04:50:00,
2013-09-04 00:55:00,67.7,66.8,30.01,ENE,65,0.0,0.0,97,0.00,,,0.00,0,Wunderground v.1.15,2013-09-04 04:55:00,
2013-09-04 01:01:00,67.2,66.3,30.01,ENE,65,0.0,0.0,97,0.00,,,0.00,0,Wunderground v.1.15,2013-09-04 05:01:00,
2013-09-04 01:07:00,67.0,66.1,30.01,ENE,65,0.0,0.0,97,0.00,,,0.00,0,Wunderground v.1.15,2013-09-04 05:07:00,
2013-09-04 01:12:00,67.3,66.7,30.01,ENE,65,0.0,0.0,98,0.00,,,0.00,0,Wunderground v.1.15,2013-09-04 05:12:00,
2013-09-04 01:18:00,67.6,67.0,30.01,ENE,65,0.0,0.0,98,0.00,,,0.00,0,Wunderground v.1.15,2013-09-04 05:18:00,
2013-09-04 01:23:00,67.9,67.3,30.01,ENE,65,0.0,0.0,98,0.00,,,0.00,0,Wunderground v.1.15,2013-09-04 05:23:00,
2013-09-04 01:28:00,67.2,66.6,30.01,ENE,65,0.0,0.0,98,0.00,,,0.00,0,Wunderground v.1.15,2013-09-04 05:28:00,
2013-09-04 01:34:00,66.9,66.0,30.01,ENE,65,0.0,0.0,97,0.00,,,0.00,0,Wunderground v.1.15,2013-09-04 05:34:00,
2013-09-04 01:39:00,66.9,66.3,30.01,ENE,65,0.0,0.0,98,0.00,,,0.00,0,Wunderground v.1.15,2013-09-04 05:39:00,
2013-09-04 01:44:00,67.6,67.0,30.01,ENE,65,0.0,0.0,98,0.00,,,0.00,0,Wunderground v.1.15,2013-09-04 05:44:00,
2013-09-04 01:49:00,67.2,66.6,30.01,ENE,65,0.0,0.0,98,0.00,,,0.00,0,Wunderground v.1.15,2013-09-04 05:49:00,
2013-09-04 01:55:00,67.3,66.7,30.01,ENE,65,0.0,0.0,98,0.00,,,0.00,0,Wunderground v.1.15,2013-09-04 05:55:00,
2013-09-04 02:01:00,67.3,66.7,30.01,ENE,65,0.0,0.0,98,0.00,,,0.00,0,Wunderground v.1.15,2013-09-04 06:01:00,
2013-09-04 02:06:00,66.9,66.3,30.01,ENE,65,0.0,0.0,98,0.00,,,0.00,0,Wunderground v.1.15,2013-09-04 06:06:00,
2013-09-04 02:11:00,66.8,66.2,30.01,ENE,65,1.0,2.0,98,0.00,,,0.00,0,Wunderground v.1.15,2013-09-04 06:11:00,
2013-09-04 02:16:00,67.4,66.8,30.01,NNE,32,0.0,2.0,98,0.00,,,0.00,0,Wunderground v.1.15,2013-09-04 06:16:00,
2013-09-04 02:22:00,67.2,66.6,30.01,NNE,32,0.0,0.0,98,0.00,,,0.00,0,Wunderground v.1.15,2013-09-04 06:22:00,
2013-09-04 02:27:00,67.0,66.4,30.01,NNE,32,0.0,0.0,98,0.00,,,0.00,0,Wunderground v.1.15,2013-09-04 06:27:00,
2013-09-04 02:32:00,66.9,66.3,30.01,NNE,32,0.0,0.0,98,0.00,,,0.00,0,Wunderground v.1.15,2013-09-04 06:32:00,
2013-09-04 02:37:00,67.0,66.4,30.01,NNE,32,0.0,0.0,98,0.00,,,0.00,0,Wunderground v.1.15,2013-09-04 06:37:00,
2013-09-04 02:42:00,67.2,66.6,30.01,NNE,32,0.0,0.0,98,0.00,,,0.00,0,Wunderground v.1.15,2013-09-04 06:42:00,
2013-09-04 02:47:00,67.0,66.4,30.02,NNE,32,0.0,0.0,98,0.00,,,0.00,0,Wunderground v.1.15,2013-09-04 06:47:00,
2013-09-04 02:52:00,66.6,66.0,30.02,NNE,32,0.0,0.0,98,0.00,,,0.00,0,Wunderground v.1.15,2013-09-04 06:52:00,
2013-09-04 02:57:00,65.7,64.8,30.02,NNE,32,0.0,0.0,97,0.00,,,0.00,0,Wunderground v.1.15,2013-09-04 06:57:00,
2013-09-04 03:02:00,66.1,65.5,30.02,NNE,21,2.0,2.0,98,0.00,,,0.00,0,Wunderground v.1.15,2013-09-04 07:02:00,
2013-09-04 03:07:00,67.8,67.2,30.02,NNW,329,1.0,3.0,98,0.00,,,0.00,0,Wunderground v.1.15,2013-09-04 07:07:00,
2013-09-04 03:12:00,67.2,66.6,30.02,NNE,17,0.0,1.0,98,0.00,,,0.00,0,Wunderground v.1.15,2013-09-04 07:12:00,
2013-09-04 03:17:00,67.7,67.1,30.02,NNE,13,0.0,1.0,98,0.00,,,0.00,0,Wunderground v.1.15,2013-09-04 07:17:00,
2013-09-04 03:22:00,67.8,67.2,30.02,NE,42,4.0,4.0,98,0.00,,,0.00,0,Wunderground v.1.15,2013-09-04 07:22:00,
2013-09-04 03:27:00,68.4,67.8,30.02,NNE,15,3.0,5.0,98,0.00,,,0.00,0,Wunderground v.1.15,2013-09-04 07:27:00,
2013-09-04 03:32:00,68.8,68.2,30.03,North,360,2.0,5.0,98,0.00,,,0.00,0,Wunderground v.1.15,2013-09-04 07:32:00,
2013-09-04 03:37:00,69.0,68.4,30.03,North,355,4.0,7.0,98,0.00,,,0.00,0,Wunderground v.1.15,2013-09-04 07:37:00,
2013-09-04 03:42:00,69.2,68.6,30.03,North,350,5.0,6.0,98,0.00,,,0.00,0,Wunderground v.1.15,2013-09-04 07:42:00,
2013-09-04 03:47:00,69.2,68.3,30.03,NE,41,6.0,10.0,97,0.00,,,0.00,0,Wunderground v.1.15,2013-09-04 07:47:00,
2013-09-04 03:53:00,69.5,67.4,30.03,NNE,33,4.0,7.0,93,0.00,,,0.00,0,Wunderground v.1.15,2013-09-04 07:53:00,
2013-09-04 03:58:00,69.6,67.2,30.03,NE,47,5.0,7.0,92,0.00,,,0.00,0,Wunderground v.1.15,2013-09-04 07:58:00,
2013-09-04 04:03:00,69.4,66.3,30.03,North,5,1.0,8.0,90,0.00,,,0.00,0,Wunderground v.1.15,2013-09-04 08:03:00,
2013-09-04 04:08:00,69.3,65.9,30.04,NNE,29,3.0,8.0,89,0.00,,,0.00,0,Wunderground v.1.15,2013-09-04 08:08:00,
2013-09-04 04:13:00,69.1,65.7,30.04,NE,36,4.0,6.0,89,0.00,,,0.00,0,Wunderground v.1.15,2013-09-04 08:13:00,
2013-09-04 04:18:00,69.0,65.6,30.04,NNE,21,0.0,6.0,89,0.00,,,0.00,0,Wunderground v.1.15,2013-09-04 08:18:00,
2013-09-04 04:23:00,68.8,65.4,30.04,NNE,13,2.0,5.0,89,0.00,,,0.00,0,Wunderground v.1.15,2013-09-04 08:23:00,
2013-09-04 04:28:00,68.4,65.4,30.05,NNE,14,0.0,5.0,90,0.00,,,0.00,0,Wunderground v.1.15,2013-09-04 08:28:00,
2013-09-04 04:33:00,68.0,65.0,30.05,NNE,20,0.0,3.0,90,0.00,,,0.00,0,Wunderground v.1.15,2013-09-04 08:33:00,
2013-09-04 04:38:00,67.7,64.7,30.05,North,351,0.0,4.0,90,0.00,,,0.00,0,Wunderground v.1.15,2013-09-04 08:38:00,
2013-09-04 04:43:00,67.6,64.6,30.05,NW,325,2.0,4.0,90,0.00,,,0.00,0,Wunderground v.1.15,2013-09-04 08:43:00,
2013-09-04 04:48:00,67.6,64.6,30.05,North,350,0.0,4.0,90,0.00,,,0.00,0,Wunderground v.1.15,2013-09-04 08:48:00,
2013-09-04 04:53:00,67.7,64.3,30.06,North,5,0.0,2.0,89,0.00,,,0.00,0,Wunderground v.1.15,2013-09-04 08:53:00,
2013-09-04 04:58:00,67.7,64.3,30.06,NNW,348,1.0,3.0,89,0.00,,,0.00,0,Wunderground v.1.15,2013-09-04 08:58:00,
2013-09-04 05:03:00,67.8,64.1,30.06,North,5,0.0,3.0,88,0.00,,,0.00,0,Wunderground v.1.15,2013-09-04 09:03:00,
2013-09-04 05:08:00,68.0,64.0,30.06,NNE,15,2.0,5.0,87,0.00,,,0.00,0,Wunderground v.1.15,2013-09-04 09:08:00,
2013-09-04 05:13:00,68.2,63.9,30.06,NNE,22,3.0,5.0,86,0.00,,,0.00,0,Wunderground v.1.15,2013-09-04 09:13:00,
2013-09-04 05:18:00,68.4,64.0,30.06,NNE,12,0.0,5.0,86,0.00,,,0.00,0,Wunderground v.1.15,2013-09-04 09:18:00,
2013-09-04 05:23:00,68.5,63.8,30.06,NE,40,4.0,6.0,85,0.00,,,0.00,0,Wunderground v.1.15,2013-09-04 09:23:00,
2013-09-04 05:28:00,68.8,63.8,30.06,North,5,2.0,6.0,84,0.00,,,0.00,0,Wunderground v.1.15,2013-09-04 09:28:00,
2013-09-04 05:34:00,68.9,63.9,30.06,NNE,15,2.0,5.0,84,0.00,,,0.00,0,Wunderground v.1.15,2013-09-04 09:34:00,
2013-09-04 05:39:00,68.6,63.9,30.06,NNE,24,5.0,5.0,85,0.00,,,0.00,0,Wunderground v.1.15,2013-09-04 09:39:00,
2013-09-04 05:44:00,68.5,63.8,30.06,NNW,339,0.0,7.0,85,0.00,,,0.00,0,Wunderground v.1.15,2013-09-04 09:44:00,
2013-09-04 05:49:00,68.4,63.4,30.07,NNE,27,4.0,7.0,84,0.00,,,0.00,0,Wunderground v.1.15,2013-09-04 09:49:00,
2013-09-04 05:54:00,68.6,63.6,30.07,NNE,19,0.0,5.0,84,0.00,,,0.00,0,Wunderground v.1.15,2013-09-04 09:54:00,
2013-09-04 05:59:00,68.5,63.5,30.07,North,5,2.0,5.0,84,0.00,,,0.00,0,Wunderground v.1.15,2013-09-04 09:59:00,
2013-09-04 06:04:00,68.6,63.6,30.07,NE,46,5.0,5.0,84,0.00,,,0.00,0,Wunderground v.1.15,2013-09-04 10:04:00,
2013-09-04 06:10:00,68.8,63.4,30.07,NNE,30,3.0,3.0,83,0.00,,,0.00,0,Wunderground v.1.15,2013-09-04 10:10:00,
2013-09-04 06:15:00,68.6,63.2,30.08,North,9,3.0,5.0,83,0.00,,,0.00,0,Wunderground v.1.15,2013-09-04 10:15:00,
2013-09-04 06:20:00,68.1,63.4,30.08,North,9,2.0,2.0,85,0.00,,,0.00,0,Wunderground v.1.15,2013-09-04 10:20:00,
2013-09-04 06:25:00,67.9,63.6,30.08,North,5,3.0,4.0,86,0.00,,,0.00,0,Wunderground v.1.15,2013-09-04 10:25:00,
2013-09-04 06:30:00,67.6,63.3,30.08,North,5,3.0,3.0,86,0.00,,,0.00,0,Wunderground v.1.15,2013-09-04 10:30:00,
2013-09-04 06:35:00,67.6,63.3,30.08,NNW,346,1.0,4.0,86,0.00,,,0.00,0,Wunderground v.1.15,2013-09-04 10:35:00,
2013-09-04 06:40:00,67.5,63.2,30.09,North,5,0.0,1.0,86,0.00,,,0.00,0,Wunderground v.1.15,2013-09-04 10:40:00,
2013-09-04 06:45:00,67.4,63.1,30.09,NNE,17,1.0,5.0,86,0.00,,,0.00,0,Wunderground v.1.15,2013-09-04 10:45:00,
2013-09-04 06:50:00,67.5,62.8,30.09,NNE,33,4.0,5.0,85,0.00,,,0.00,0,Wunderground v.1.15,2013-09-04 10:50:00,
2013-09-04 06:55:00,68.1,62.7,30.09,NNE,27,2.0,5.0,83,0.00,,,0.00,5,Wunderground v.1.15,2013-09-04 10:55:00,
2013-09-04 07:00:00,68.3,62.6,30.09,NNE,23,4.0,6.0,82,0.00,,,0.00,7,Wunderground v.1.15,2013-09-04 11:00:00,
2013-09-04 07:05:00,68.4,62.7,30.09,NE,36,3.0,7.0,82,0.00,,,0.00,11,Wunderground v.1.15,2013-09-04 11:05:00,
2013-09-04 07:10:00,68.6,62.9,30.10,NE,36,2.0,4.0,82,0.00,,,0.00,14,Wunderground v.1.15,2013-09-04 11:10:00,
2013-09-04 07:15:00,68.8,62.7,30.10,NNE,24,7.0,8.0,81,0.00,,,0.00,19,Wunderground v.1.15,2013-09-04 11:15:00,
2013-09-04 07:20:00,68.7,62.6,30.10,NE,38,4.0,6.0,81,0.00,,,0.00,21,Wunderground v.1.15,2013-09-04 11:20:00,
2013-09-04 07:25:00,68.4,62.7,30.10,NE,36,5.0,7.0,82,0.00,,,0.00,32,Wunderground v.1.15,2013-09-04 11:25:00,
2013-09-04 07:30:00,68.3,62.6,30.11,NNE,32,7.0,9.0,82,0.00,,,0.00,40,Wunderground v.1.15,2013-09-04 11:30:00,
2013-09-04 07:35:00,68.3,62.9,30.11,East,94,1.0,9.0,83,0.00,,,0.00,46,Wunderground v.1.15,2013-09-04 11:35:00,
2013-09-04 07:40:00,67.7,63.0,30.12,NNE,14,0.0,3.0,85,0.00,,,0.00,25,Wunderground v.1.15,2013-09-04 11:40:00,
2013-09-04 07:45:00,67.6,61.9,30.12,NE,40,3.0,5.0,82,0.00,,,0.00,28,Wunderground v.1.15,2013-09-04 11:45:00,
2013-09-04 07:50:00,67.9,61.9,30.12,North,11,5.0,5.0,81,0.00,,,0.00,58,Wunderground v.1.15,2013-09-04 11:50:00,
2013-09-04 07:55:00,68.1,62.0,30.12,NNE,18,5.0,7.0,81,0.00,,,0.00,86,Wunderground v.1.15,2013-09-04 11:55:00,
2013-09-04 08:01:00,68.3,61.9,30.12,NE,38,5.0,5.0,80,0.00,,,0.00,111,Wunderground v.1.15,2013-09-04 12:01:00,
2013-09-04 08:06:00,68.2,61.8,30.12,NNW,331,2.0,8.0,80,0.00,,,0.00,125,Wunderground v.1.15,2013-09-04 12:06:00,
2013-09-04 08:11:00,68.4,61.6,30.13,North,360,4.0,5.0,79,0.00,,,0.00,141,Wunderground v.1.15,2013-09-04 12:11:00,
2013-09-04 08:16:00,68.6,61.8,30.13,NNE,30,3.0,8.0,79,0.00,,,0.00,125,Wunderground v.1.15,2013-09-04 12:16:00,
2013-09-04 08:22:00,68.7,61.2,30.13,NNE,28,6.0,7.0,77,0.00,,,0.00,130,Wunderground v.1.15,2013-09-04 12:22:00,
2013-09-04 08:27:00,68.8,62.0,30.13,NE,44,6.0,7.0,79,0.00,,,0.00,111,Wunderground v.1.15,2013-09-04 12:27:00,
2013-09-04 08:32:00,68.9,61.4,30.13,North,5,2.0,7.0,77,0.00,,,0.00,109,Wunderground v.1.15,2013-09-04 12:32:00,
2013-09-04 08:37:00,68.8,61.7,30.13,NNE,15,4.0,7.0,78,0.00,,,0.00,107,Wunderground v.1.15,2013-09-04 12:37:00,
2013-09-04 08:42:00,68.7,61.9,30.13,North,10,3.0,4.0,79,0.00,,,0.00,142,Wunderground v.1.15,2013-09-04 12:42:00,
2013-09-04 08:47:00,68.6,61.8,30.13,NNE,17,3.0,7.0,79,0.00,,,0.00,181,Wunderground v.1.15,2013-09-04 12:47:00,
2013-09-04 08:52:00,68.9,61.4,30.13,NNE,30,1.0,5.0,77,0.00,,,0.00,193,Wunderground v.1.15,2013-09-04 12:52:00,
2013-09-04 08:57:00,69.1,61.9,30.13,NNE,26,8.0,8.0,78,0.00,,,0.00,211,Wunderground v.1.15,2013-09-04 12:57:00,
2013-09-04 09:02:00,69.3,62.1,30.14,ENE,67,3.0,4.0,78,0.00,,,0.00,241,Wunderground v.1.15,2013-09-04 13:02:00,
2013-09-04 09:07:00,69.8,61.5,30.14,East,82,6.0,7.0,75,0.00,,,0.00,202,Wunderground v.1.15,2013-09-04 13:07:00,
2013-09-04 09:12:00,70.2,61.1,30.14,NNE,26,5.0,8.0,73,0.00,,,0.00,255,Wunderground v.1.15,2013-09-04 13:12:00,
2013-09-04 09:17:00,70.0,60.9,30.14,NNE,28,5.0,8.0,73,0.00,,,0.00,279,Wunderground v.1.15,2013-09-04 13:17:00,
2013-09-04 09:22:00,70.5,60.6,30.14,NE,45,4.0,9.0,71,0.00,,,0.00,255,Wunderground v.1.15,2013-09-04 13:22:00,
2013-09-04 09:27:00,70.9,59.8,30.14,NE,36,6.0,13.0,68,0.00,,,0.00,243,Wunderground v.1.15,2013-09-04 13:27:00,
2013-09-04 09:32:00,71.0,60.7,30.15,ENE,57,4.0,8.0,70,0.00,,,0.00,213,Wunderground v.1.15,2013-09-04 13:32:00,
2013-09-04 09:37:00,71.2,60.5,30.15,East,98,6.0,8.0,69,0.00,,,0.00,230,Wunderground v.1.15,2013-09-04 13:37:00,
2013-09-04 09:42:00,71.0,60.3,30.15,ENE,69,0.0,7.0,69,0.00,,,0.00,250,Wunderground v.1.15,2013-09-04 13:42:00,
2013-09-04 09:47:00,71.3,60.2,30.15,East,97,3.0,7.0,68,0.00,,,0.00,271,Wunderground v.1.15,2013-09-04 13:47:00,
2013-09-04 09:52:00,71.3,60.2,30.15,NNE,27,4.0,8.0,68,0.00,,,0.00,350,Wunderground v.1.15,2013-09-04 13:52:00,
2013-09-04 09:57:00,72.0,60.4,30.15,NNE,24,2.0,11.0,67,0.00,,,0.00,427,Wunderground v.1.15,2013-09-04 13:57:00,
2013-09-04 10:02:00,72.0,60.4,30.15,NNE,26,7.0,7.0,67,0.00,,,0.00,306,Wunderground v.1.15,2013-09-04 14:02:00,
2013-09-04 10:07:00,72.0,59.6,30.16,East,80,6.0,9.0,65,0.00,,,0.00,253,Wunderground v.1.15,2013-09-04 14:07:00,
2013-09-04 10:12:00,72.6,60.2,30.16,NE,37,5.0,5.0,65,0.00,,,0.00,279,Wunderground v.1.15,2013-09-04 14:12:00,
2013-09-04 10:17:00,73.3,60.4,30.16,NE,42,3.0,7.0,64,0.00,,,0.00,846,Wunderground v.1.15,2013-09-04 14:17:00,
2013-09-04 10:22:00,73.3,59.9,30.16,East,91,5.0,9.0,63,0.00,,,0.00,388,Wunderground v.1.15,2013-09-04 14:22:00,
2013-09-04 10:27:00,73.6,60.7,30.16,NE,34,4.0,9.0,64,0.00,,,0.00,504,Wunderground v.1.15,2013-09-04 14:27:00,
2013-09-04 10:32:00,73.4,59.6,30.16,East,87,9.0,10.0,62,0.00,,,0.00,322,Wunderground v.1.15,2013-09-04 14:32:00,
2013-09-04 10:37:00,73.4,60.9,30.16,NE,38,4.0,11.0,65,0.00,,,0.00,884,Wunderground v.1.15,2013-09-04 14:37:00,
2013-09-04 10:42:00,73.8,60.4,30.16,NE,43,7.0,8.0,63,0.00,,,0.00,838,Wunderground v.1.15,2013-09-04 14:42:00,
2013-09-04 10:47:00,74.3,61.8,30.16,NE,36,7.0,9.0,65,0.00,,,0.00,577,Wunderground v.1.15,2013-09-04 14:47:00,
2013-09-04 10:52:00,74.2,60.3,30.16,ESE,114,4.0,6.0,62,0.00,,,0.00,376,Wunderground v.1.15,2013-09-04 14:52:00,
2013-09-04 10:57:00,74.1,60.2,30.16,NE,37,5.0,8.0,62,0.00,,,0.00,424,Wunderground v.1.15,2013-09-04 14:57:00,
2013-09-04 11:02:00,74.3,60.4,30.16,ENE,67,7.0,7.0,62,0.00,,,0.00,424,Wunderground v.1.15,2013-09-04 15:02:00,
2013-09-04 11:07:00,74.3,60.0,30.16,ESE,108,5.0,8.0,61,0.00,,,0.00,352,Wunderground v.1.15,2013-09-04 15:07:00,
2013-09-04 11:13:00,74.7,60.4,30.16,NE,55,5.0,7.0,61,0.00,,,0.00,513,Wunderground v.1.15,2013-09-04 15:13:00,
2013-09-04 11:18:00,74.3,60.4,30.16,NNE,23,4.0,7.0,62,0.00,,,0.00,531,Wunderground v.1.15,2013-09-04 15:18:00,
2013-09-04 11:23:00,74.1,62.4,30.16,NNE,18,6.0,7.0,67,0.00,,,0.00,387,Wunderground v.1.15,2013-09-04 15:23:00,
2013-09-04 11:28:00,74.8,62.2,30.16,NE,50,3.0,8.0,65,0.00,,,0.00,387,Wunderground v.1.15,2013-09-04 15:28:00,
2013-09-04 11:33:00,75.2,62.6,30.16,North,5,4.0,7.0,65,0.00,,,0.00,601,Wunderground v.1.15,2013-09-04 15:33:00,
2013-09-04 11:38:00,75.5,62.5,30.16,NNW,333,2.0,7.0,64,0.00,,,0.00,480,Wunderground v.1.15,2013-09-04 15:38:00,
2013-09-04 11:43:00,75.8,60.9,30.16,NNE,13,3.0,6.0,60,0.00,,,0.00,552,Wunderground v.1.15,2013-09-04 15:43:00,
2013-09-04 11:48:00,75.3,63.2,30.16,North,11,0.0,8.0,66,0.00,,,0.00,457,Wunderground v.1.15,2013-09-04 15:48:00,
2013-09-04 11:54:00,74.8,61.4,30.16,NNE,21,0.0,6.0,63,0.00,,,0.00,473,Wunderground v.1.15,2013-09-04 15:54:00,
2013-09-04 11:59:00,75.3,62.3,30.16,NNE,26,0.0,6.0,64,0.00,,,0.00,454,Wunderground v.1.15,2013-09-04 15:59:00,
2013-09-04 12:04:00,75.3,60.9,30.16,ENE,61,1.0,5.0,61,0.00,,,0.00,415,Wunderground v.1.15,2013-09-04 16:04:00,
2013-09-04 12:09:00,75.3,60.9,30.16,SE,133,1.0,5.0,61,0.00,,,0.00,554,Wunderground v.1.15,2013-09-04 16:09:00,
2013-09-04 12:14:00,75.5,60.6,30.16,SE,138,0.0,7.0,60,0.00,,,0.00,332,Wunderground v.1.15,2013-09-04 16:14:00,
2013-09-04 12:19:00,75.9,64.2,30.16,SSE,163,1.0,7.0,67,0.00,,,0.00,682,Wunderground v.1.15,2013-09-04 16:19:00,
2013-09-04 12:24:00,77.1,62.1,30.16,ESE,102,5.0,6.0,60,0.00,,,0.00,657,Wunderground v.1.15,2013-09-04 16:24:00,
2013-09-04 12:29:00,76.1,61.2,30.16,ESE,123,1.0,6.0,60,0.00,,,0.00,350,Wunderground v.1.15,2013-09-04 16:29:00,
2013-09-04 12:34:00,75.7,61.3,30.16,South,173,1.0,3.0,61,0.00,,,0.00,914,Wunderground v.1.15,2013-09-04 16:34:00,
2013-09-04 12:39:00,76.6,63.1,30.16,SSE,150,0.0,4.0,63,0.00,,,0.00,870,Wunderground v.1.15,2013-09-04 16:39:00,
2013-09-04 12:45:00,77.9,66.1,30.15,West,263,1.0,4.0,67,0.00,,,0.00,851,Wunderground v.1.15,2013-09-04 16:45:00,
2013-09-04 12:50:00,77.6,62.1,30.16,ENE,61,2.0,4.0,59,0.00,,,0.00,858,Wunderground v.1.15,2013-09-04 16:50:00,
2013-09-04 12:55:00,77.8,61.8,30.16,SSE,155,1.0,5.0,58,0.00,,,0.00,856,Wunderground v.1.15,2013-09-04 16:55:00,
2013-09-04 13:02:00,78.7,61.2,30.15,SE,124,3.0,7.0,55,0.00,,,0.00,856,Wunderground v.1.15,2013-09-04 17:02:00,
2013-09-04 13:07:00,78.6,61.6,30.15,SW,225,2.0,8.0,56,0.00,,,0.00,854,Wunderground v.1.15,2013-09-04 17:07:00,
2013-09-04 13:12:00,78.3,61.3,30.15,East,84,2.0,5.0,56,0.00,,,0.00,831,Wunderground v.1.15,2013-09-04 17:12:00,
2013-09-04 13:17:00,78.7,61.7,30.15,SE,138,6.0,6.0,56,0.00,,,0.00,870,Wunderground v.1.15,2013-09-04 17:17:00,
2013-09-04 13:22:00,79.1,62.1,30.15,East,94,0.0,2.0,56,0.00,,,0.00,877,Wunderground v.1.15,2013-09-04 17:22:00,
2013-09-04 13:27:00,79.9,62.3,30.15,ENE,66,2.0,5.0,55,0.00,,,0.00,441,Wunderground v.1.15,2013-09-04 17:27:00,
2013-09-04 13:32:00,79.5,63.9,30.15,NNW,344,0.0,5.0,59,0.00,,,0.00,896,Wunderground v.1.15,2013-09-04 17:32:00,
2013-09-04 13:38:00,79.4,63.3,30.15,SE,128,2.0,5.0,58,0.00,,,0.00,928,Wunderground v.1.15,2013-09-04 17:38:00,
2013-09-04 13:43:00,79.6,62.5,30.15,NNE,19,4.0,6.0,56,0.00,,,0.00,916,Wunderground v.1.15,2013-09-04 17:43:00,
2013-09-04 13:48:00,79.6,63.0,30.15,NE,37,1.0,7.0,57,0.00,,,0.00,923,Wunderground v.1.15,2013-09-04 17:48:00,
2013-09-04 13:53:00,80.0,62.9,30.15,SSE,165,0.0,3.0,56,0.00,,,0.00,930,Wunderground v.1.15,2013-09-04 17:53:00,
2013-09-04 13:58:00,80.1,63.0,30.14,East,92,2.0,5.0,56,0.00,,,0.00,1027,Wunderground v.1.15,2013-09-04 17:58:00,
2013-09-04 14:03:00,80.1,63.0,30.14,ENE,59,3.0,5.0,56,0.00,,,0.00,538,Wunderground v.1.15,2013-09-04 18:03:00,
2013-09-04 14:08:00,80.3,65.1,30.14,NNW,337,1.0,7.0,60,0.00,,,0.00,348,Wunderground v.1.15,2013-09-04 18:08:00,
2013-09-04 14:13:00,80.5,63.9,30.14,ENE,71,3.0,4.0,57,0.00,,,0.00,925,Wunderground v.1.15,2013-09-04 18:13:00,
2013-09-04 14:18:00,80.1,64.0,30.14,South,183,2.0,5.0,58,0.00,,,0.00,577,Wunderground v.1.15,2013-09-04 18:18:00,
2013-09-04 14:23:00,81.1,68.2,30.13,West,266,0.0,2.0,65,0.00,,,0.00,884,Wunderground v.1.15,2013-09-04 18:23:00,
2013-09-04 14:28:00,81.2,65.5,30.13,West,267,0.0,2.0,59,0.00,,,0.00,823,Wunderground v.1.15,2013-09-04 18:28:00,
2013-09-04 14:33:00,81.0,63.3,30.13,SE,143,4.0,4.0,55,0.00,,,0.00,863,Wunderground v.1.15,2013-09-04 18:33:00,
2013-09-04 14:38:00,80.6,63.5,30.13,ENE,68,3.0,5.0,56,0.00,,,0.00,895,Wunderground v.1.15,2013-09-04 18:38:00,
2013-09-04 14:43:00,81.5,63.8,30.12,ENE,74,4.0,4.0,55,0.00,,,0.00,758,Wunderground v.1.15,2013-09-04 18:43:00,
2013-09-04 14:48:00,81.2,63.5,30.12,WSW,238,0.0,5.0,55,0.00,,,0.00,761,Wunderground v.1.15,2013-09-04 18:48:00,
2013-09-04 14:53:00,82.1,65.4,30.12,NNW,346,1.0,4.0,57,0.00,,,0.00,758,Wunderground v.1.15,2013-09-04 18:53:00,
2013-09-04 14:58:00,82.0,64.2,30.12,West,265,0.0,4.0,55,0.00,,,0.00,722,Wunderground v.1.15,2013-09-04 18:58:00,
2013-09-04 15:03:00,82.2,66.0,30.12,SW,219,5.0,5.0,58,0.00,,,0.00,717,Wunderground v.1.15,2013-09-04 19:03:00,
2013-09-04 15:08:00,81.6,66.8,30.12,SSW,192,3.0,5.0,61,0.00,,,0.00,671,Wunderground v.1.15,2013-09-04 19:08:00,
2013-09-04 15:13:00,81.4,67.1,30.12,NE,43,1.0,5.0,62,0.00,,,0.00,686,Wunderground v.1.15,2013-09-04 19:13:00,
2013-09-04 15:18:00,82.1,66.8,30.12,WSW,239,3.0,7.0,60,0.00,,,0.00,671,Wunderground v.1.15,2013-09-04 19:18:00,
2013-09-04 15:23:00,81.4,67.1,30.11,West,279,0.0,4.0,62,0.00,,,0.00,673,Wunderground v.1.15,2013-09-04 19:23:00,
2013-09-04 15:28:00,81.5,66.8,30.11,SW,230,3.0,7.0,61,0.00,,,0.00,654,Wunderground v.1.15,2013-09-04 19:28:00,
2013-09-04 15:33:00,81.2,65.5,30.11,SSW,207,4.0,7.0,59,0.00,,,0.00,659,Wunderground v.1.15,2013-09-04 19:33:00,
2013-09-04 15:38:00,81.7,66.0,30.11,South,188,7.0,7.0,59,0.00,,,0.00,545,Wunderground v.1.15,2013-09-04 19:38:00,
2013-09-04 15:43:00,81.2,65.5,30.11,SSW,194,4.0,10.0,59,0.00,,,0.00,691,Wunderground v.1.15,2013-09-04 19:43:00,
2013-09-04 15:48:00,81.3,66.1,30.11,SSW,207,4.0,10.0,60,0.00,,,0.00,582,Wunderground v.1.15,2013-09-04 19:48:00,
2013-09-04 15:53:00,81.1,67.8,30.11,SW,220,2.0,4.0,64,0.00,,,0.00,684,Wunderground v.1.15,2013-09-04 19:53:00,
2013-09-04 15:58:00,81.5,66.3,30.11,SSE,150,0.0,6.0,60,0.00,,,0.00,621,Wunderground v.1.15,2013-09-04 19:58:00,
2013-09-04 16:03:00,81.8,65.6,30.10,West,263,1.0,3.0,58,0.00,,,0.00,566,Wunderground v.1.15,2013-09-04 20:03:00,
2013-09-04 16:08:00,81.6,67.3,30.10,SW,221,5.0,5.0,62,0.00,,,0.00,575,Wunderground v.1.15,2013-09-04 20:08:00,
2013-09-04 16:13:00,81.1,64.9,30.10,SSE,162,1.0,3.0,58,0.00,,,0.00,575,Wunderground v.1.15,2013-09-04 20:13:00,
2013-09-04 16:18:00,81.3,65.1,30.10,West,265,2.0,3.0,58,0.00,,,0.00,524,Wunderground v.1.15,2013-09-04 20:18:00,
2013-09-04 16:23:00,81.4,66.7,30.10,SW,226,2.0,5.0,61,0.00,,,0.00,508,Wunderground v.1.15,2013-09-04 20:23:00,
2013-09-04 16:28:00,81.2,66.5,30.10,WNW,298,1.0,5.0,61,0.00,,,0.00,497,Wunderground v.1.15,2013-09-04 20:28:00,
2013-09-04 16:33:00,81.5,69.0,30.10,SW,231,3.0,4.0,66,0.00,,,0.00,475,Wunderground v.1.15,2013-09-04 20:33:00,
2013-09-04 16:38:00,81.3,65.6,30.10,West,260,0.0,5.0,59,0.00,,,0.00,457,Wunderground v.1.15,2013-09-04 20:38:00,
2013-09-04 16:43:00,81.2,68.3,30.10,SW,231,0.0,1.0,65,0.00,,,0.00,448,Wunderground v.1.15,2013-09-04 20:43:00,
2013-09-04 16:48:00,81.3,66.6,30.10,South,187,1.0,3.0,61,0.00,,,0.00,441,Wunderground v.1.15,2013-09-04 20:48:00,
2013-09-04 16:54:00,81.5,67.7,30.10,WSW,254,0.0,4.0,63,0.00,,,0.00,424,Wunderground v.1.15,2013-09-04 20:54:00,
2013-09-04 16:59:00,81.7,66.5,30.09,SW,224,2.0,4.0,60,0.00,,,0.00,408,Wunderground v.1.15,2013-09-04 20:59:00,
2013-09-04 17:04:00,81.1,66.4,30.09,WSW,258,1.0,3.0,61,0.00,,,0.00,387,Wunderground v.1.15,2013-09-04 21:04:00,
2013-09-04 17:09:00,81.4,67.6,30.09,SW,225,0.0,4.0,63,0.00,,,0.00,373,Wunderground v.1.15,2013-09-04 21:09:00,
2013-09-04 17:14:00,81.7,65.5,30.09,SSW,211,1.0,4.0,58,0.00,,,0.00,367,Wunderground v.1.15,2013-09-04 21:14:00,
2013-09-04 17:19:00,81.3,68.0,30.09,WSW,239,4.0,4.0,64,0.00,,,0.00,345,Wunderground v.1.15,2013-09-04 21:19:00,
2013-09-04 17:24:00,81.0,67.2,30.09,SW,234,0.0,3.0,63,0.00,,,0.00,329,Wunderground v.1.15,2013-09-04 21:24:00,
2013-09-04 17:29:00,80.8,68.4,30.09,WSW,257,0.0,3.0,66,0.00,,,0.00,306,Wunderground v.1.15,2013-09-04 21:29:00,
2013-09-04 17:34:00,80.8,66.6,30.09,SW,222,0.0,3.0,62,0.00,,,0.00,294,Wunderground v.1.15,2013-09-04 21:34:00,
2013-09-04 17:39:00,80.9,66.2,30.09,SW,217,4.0,4.0,61,0.00,,,0.00,278,Wunderground v.1.15,2013-09-04 21:39:00,
2013-09-04 17:44:00,80.7,67.4,30.09,SW,235,0.0,3.0,64,0.00,,,0.00,260,Wunderground v.1.15,2013-09-04 21:44:00,
2013-09-04 17:49:00,80.6,68.6,30.09,WSW,249,0.0,3.0,67,0.00,,,0.00,241,Wunderground v.1.15,2013-09-04 21:49:00,
2013-09-04 17:54:00,80.6,67.7,30.09,WSW,249,0.0,1.0,65,0.00,,,0.00,221,Wunderground v.1.15,2013-09-04 21:54:00,
2013-09-04 17:59:00,80.5,66.7,30.09,WNW,283,0.0,3.0,63,0.00,,,0.00,197,Wunderground v.1.15,2013-09-04 21:59:00,
2013-09-04 18:04:00,79.7,68.6,30.09,WNW,283,0.0,0.0,69,0.00,,,0.00,178,Wunderground v.1.15,2013-09-04 22:04:00,
2013-09-04 18:09:00,80.0,68.1,30.08,WNW,283,0.0,1.0,67,0.00,,,0.00,160,Wunderground v.1.15,2013-09-04 22:09:00,
2013-09-04 18:14:00,80.0,69.3,30.09,WNW,300,0.0,1.0,70,0.00,,,0.00,139,Wunderground v.1.15,2013-09-04 22:14:00,
2013-09-04 18:19:00,79.6,69.8,30.09,WNW,300,0.0,1.0,72,0.00,,,0.00,121,Wunderground v.1.15,2013-09-04 22:19:00,
2013-09-04 18:24:00,79.3,69.9,30.09,WNW,300,0.0,0.0,73,0.00,,,0.00,104,Wunderground v.1.15,2013-09-04 22:24:00,
2013-09-04 18:29:00,79.1,69.3,30.09,WNW,300,0.0,0.0,72,0.00,,,0.00,91,Wunderground v.1.15,2013-09-04 22:29:00,
2013-09-04 18:34:00,79.0,68.8,30.09,WNW,300,0.0,0.0,71,0.00,,,0.00,74,Wunderground v.1.15,2013-09-04 22:34:00,
2013-09-04 18:39:00,78.9,69.5,30.09,WNW,300,0.0,0.0,73,0.00,,,0.00,60,Wunderground v.1.15,2013-09-04 22:39:00,
2013-09-04 18:44:00,77.9,68.9,30.09,WNW,300,0.0,0.0,74,0.00,,,0.00,49,Wunderground v.1.15,2013-09-04 22:44:00,
2013-09-04 18:49:00,77.2,68.7,30.09,WNW,300,0.0,1.0,75,0.00,,,0.00,35,Wunderground v.1.15,2013-09-04 22:49:00,
2013-09-04 18:54:00,76.7,67.4,30.09,NW,307,0.0,1.0,73,0.00,,,0.00,30,Wunderground v.1.15,2013-09-04 22:54:00,
2013-09-04 18:59:00,75.9,67.4,30.09,NW,307,0.0,1.0,75,0.00,,,0.00,26,Wunderground v.1.15,2013-09-04 22:59:00,
2013-09-04 19:04:00,74.7,67.4,30.09,NW,307,1.0,1.0,78,0.00,,,0.00,23,Wunderground v.1.15,2013-09-04 23:04:00,
2013-09-04 19:09:00,74.3,67.4,30.09,NW,307,0.0,1.0,79,0.00,,,0.00,21,Wunderground v.1.15,2013-09-04 23:09:00,
2013-09-04 19:14:00,74.6,67.7,30.09,NW,307,0.0,0.0,79,0.00,,,0.00,18,Wunderground v.1.15,2013-09-04 23:14:00,
2013-09-04 19:19:00,73.3,67.5,30.09,NW,307,0.0,0.0,82,0.00,,,0.00,16,Wunderground v.1.15,2013-09-04 23:19:00,
2013-09-04 19:24:00,73.5,67.3,30.09,NW,307,0.0,1.0,81,0.00,,,0.00,14,Wunderground v.1.15,2013-09-04 23:24:00,
2013-09-04 19:29:00,73.4,67.2,30.09,NW,307,0.0,0.0,81,0.00,,,0.00,9,Wunderground v.1.15,2013-09-04 23:29:00,
2013-09-04 19:35:00,72.0,67.9,30.09,NW,307,0.0,0.0,87,0.00,,,0.00,5,Wunderground v.1.15,2013-09-04 23:35:00,
2013-09-04 19:40:00,72.0,68.2,30.09,NW,307,0.0,0.0,88,0.00,,,0.00,0,Wunderground v.1.15,2013-09-04 23:40:00,
2013-09-04 19:45:00,71.3,68.2,30.09,NW,307,0.0,0.0,90,0.00,,,0.00,0,Wunderground v.1.15,2013-09-04 23:45:00,
2013-09-04 19:50:00,70.6,67.8,30.10,NW,307,0.0,0.0,91,0.00,,,0.00,0,Wunderground v.1.15,2013-09-04 23:50:00,
2013-09-04 19:55:00,70.0,67.6,30.10,NW,307,0.0,0.0,92,0.00,,,0.00,0,Wunderground v.1.15,2013-09-04 23:55:00,
2013-09-04 20:01:00,69.4,67.3,30.10,NW,307,0.0,0.0,93,0.00,,,0.00,0,Wunderground v.1.15,2013-09-05 00:01:00,
2013-09-04 20:06:00,69.5,67.7,30.10,NW,307,0.0,0.0,94,0.00,,,0.00,0,Wunderground v.1.15,2013-09-05 00:06:00,
2013-09-04 20:11:00,69.6,67.8,30.10,NW,307,0.0,0.0,94,0.00,,,0.00,0,Wunderground v.1.15,2013-09-05 00:11:00,
2013-09-04 20:17:00,69.2,67.1,30.11,NW,307,0.0,0.0,93,0.00,,,0.00,0,Wunderground v.1.15,2013-09-05 00:17:00,
2013-09-04 20:22:00,69.0,67.2,30.11,NW,307,0.0,0.0,94,0.00,,,0.00,0,Wunderground v.1.15,2013-09-05 00:22:00,
2013-09-04 20:27:00,68.9,67.1,30.11,NW,307,0.0,0.0,94,0.00,,,0.00,0,Wunderground v.1.15,2013-09-05 00:27:00,
2013-09-04 20:32:00,68.6,66.8,30.11,NW,307,0.0,0.0,94,0.00,,,0.00,0,Wunderground v.1.15,2013-09-05 00:32:00,
2013-09-04 20:37:00,68.3,66.8,30.11,NW,307,0.0,0.0,95,0.00,,,0.00,0,Wunderground v.1.15,2013-09-05 00:37:00,
2013-09-04 20:42:00,67.9,66.1,30.11,NW,307,0.0,0.0,94,0.00,,,0.00,0,Wunderground v.1.15,2013-09-05 00:42:00,
2013-09-04 20:47:00,67.7,66.2,30.11,NW,307,0.0,0.0,95,0.00,,,0.00,0,Wunderground v.1.15,2013-09-05 00:47:00,
2013-09-04 20:52:00,67.7,66.2,30.12,NW,307,0.0,0.0,95,0.00,,,0.00,0,Wunderground v.1.15,2013-09-05 00:52:00,
2013-09-04 20:57:00,67.7,66.2,30.12,NW,307,0.0,0.0,95,0.00,,,0.00,0,Wunderground v.1.15,2013-09-05 00:57:00,
2013-09-04 21:03:00,67.9,66.4,30.12,NW,307,0.0,0.0,95,0.00,,,0.00,0,Wunderground v.1.15,2013-09-05 01:03:00,
2013-09-04 21:08:00,67.2,65.4,30.12,NW,307,0.0,0.0,94,0.00,,,0.00,0,Wunderground v.1.15,2013-09-05 01:08:00,
2013-09-04 21:13:00,67.1,65.6,30.12,NW,307,0.0,0.0,95,0.00,,,0.00,0,Wunderground v.1.15,2013-09-05 01:13:00,
2013-09-04 21:18:00,66.6,65.1,30.13,NW,307,0.0,0.0,95,0.00,,,0.00,0,Wunderground v.1.15,2013-09-05 01:18:00,
2013-09-04 21:23:00,66.3,64.8,30.12,NW,307,0.0,0.0,95,0.00,,,0.00,0,Wunderground v.1.15,2013-09-05 01:23:00,
2013-09-04 21:28:00,66.7,65.5,30.12,NW,307,0.0,0.0,96,0.00,,,0.00,0,Wunderground v.1.15,2013-09-05 01:28:00,
2013-09-04 21:33:00,66.8,65.6,30.12,NW,307,0.0,0.0,96,0.00,,,0.00,0,Wunderground v.1.15,2013-09-05 01:33:00,
2013-09-04 21:38:00,66.5,65.3,30.12,NW,307,0.0,0.0,96,0.00,,,0.00,0,Wunderground v.1.15,2013-09-05 01:38:00,
2013-09-04 21:43:00,66.2,65.0,30.12,NW,307,0.0,0.0,96,0.00,,,0.00,0,Wunderground v.1.15,2013-09-05 01:43:00,
2013-09-04 21:48:00,66.1,64.9,30.12,NW,307,0.0,0.0,96,0.00,,,0.00,0,Wunderground v.1.15,2013-09-05 01:48:00,
2013-09-04 21:53:00,65.6,64.4,30.12,NW,307,0.0,0.0,96,0.00,,,0.00,0,Wunderground v.1.15,2013-09-05 01:53:00,
2013-09-04 21:58:00,65.9,65.0,30.13,NW,307,0.0,0.0,97,0.00,,,0.00,0,Wunderground v.1.15,2013-09-05 01:58:00,
2013-09-04 22:03:00,65.8,64.9,30.13,NW,307,0.0,0.0,97,0.00,,,0.00,0,Wunderground v.1.15,2013-09-05 02:03:00,
2013-09-04 22:08:00,65.0,63.8,30.13,NW,307,0.0,0.0,96,0.00,,,0.00,0,Wunderground v.1.15,2013-09-05 02:08:00,
2013-09-04 22:13:00,64.6,63.4,30.13,NW,307,0.0,0.0,96,0.00,,,0.00,0,Wunderground v.1.15,2013-09-05 02:13:00,
2013-09-04 22:18:00,64.7,63.8,30.13,NW,307,0.0,0.0,97,0.00,,,0.00,0,Wunderground v.1.15,2013-09-05 02:18:00,
2013-09-04 22:23:00,65.2,64.3,30.13,NW,307,0.0,0.0,97,0.00,,,0.00,0,Wunderground v.1.15,2013-09-05 02:23:00,
2013-09-04 22:28:00,65.1,64.2,30.13,NW,307,0.0,0.0,97,0.00,,,0.00,0,Wunderground v.1.15,2013-09-05 02:28:00,
2013-09-04 22:34:00,64.9,63.7,30.13,NW,307,0.0,0.0,96,0.00,,,0.00,0,Wunderground v.1.15,2013-09-05 02:34:00,
2013-09-04 22:39:00,64.9,64.0,30.13,NW,307,0.0,0.0,97,0.00,,,0.00,0,Wunderground v.1.15,2013-09-05 02:39:00,
2013-09-04 22:44:00,64.7,63.8,30.13,NW,307,0.0,0.0,97,0.00,,,0.00,0,Wunderground v.1.15,2013-09-05 02:44:00,
2013-09-04 22:49:00,64.8,63.9,30.14,NW,307,0.0,0.0,97,0.00,,,0.00,0,Wunderground v.1.15,2013-09-05 02:49:00,
2013-09-04 22:54:00,64.7,63.8,30.13,NW,307,0.0,0.0,97,0.00,,,0.00,0,Wunderground v.1.15,2013-09-05 02:54:00,
2013-09-04 22:59:00,64.1,62.9,30.13,NW,307,0.0,0.0,96,0.00,,,0.00,0,Wunderground v.1.15,2013-09-05 02:59:00,
2013-09-04 23:04:00,63.7,62.8,30.13,NW,307,0.0,0.0,97,0.00,,,0.00,0,Wunderground v.1.15,2013-09-05 03:04:00,
2013-09-04 23:09:00,63.4,62.5,30.14,NW,307,0.0,0.0,97,0.00,,,0.00,0,Wunderground v.1.15,2013-09-05 03:09:00,
2013-09-04 23:14:00,63.2,62.3,30.14,NW,307,0.0,0.0,97,0.00,,,0.00,0,Wunderground v.1.15,2013-09-05 03:14:00,
2013-09-04 23:19:00,63.6,62.7,30.14,NW,307,0.0,0.0,97,0.00,,,0.00,0,Wunderground v.1.15,2013-09-05 03:19:00,
2013-09-04 23:24:00,63.2,62.3,30.14,NW,307,0.0,0.0,97,0.00,,,0.00,0,Wunderground v.1.15,2013-09-05 03:24:00,
2013-09-04 23:29:00,63.0,62.1,30.14,NW,307,0.0,0.0,97,0.00,,,0.00,0,Wunderground v.1.15,2013-09-05 03:29:00,
2013-09-04 23:34:00,63.4,62.5,30.14,NW,307,0.0,0.0,97,0.00,,,0.00,0,Wunderground v.1.15,2013-09-05 03:34:00,
2013-09-04 23:39:00,63.3,62.4,30.14,NW,307,0.0,0.0,97,0.00,,,0.00,0,Wunderground v.1.15,2013-09-05 03:39:00,
2013-09-04 23:44:00,62.9,62.0,30.14,NW,307,0.0,0.0,97,0.00,,,0.00,0,Wunderground v.1.15,2013-09-05 03:44:00,
2013-09-04 23:49:00,62.7,61.8,30.14,NW,307,0.0,0.0,97,0.00,,,0.00,0,Wunderground v.1.15,2013-09-05 03:49:00,
2013-09-04 23:54:00,62.6,61.7,30.14,NW,307,0.0,0.0,97,0.00,,,0.00,0,Wunderground v.1.15,2013-09-05 03:54:00,
2013-09-04 23:59:00,62.6,61.7,30.14,NW,307,0.0,0.0,97,0.00,,,0.00,0,Wunderground v.1.15,2013-09-05 03:59:00,